Language: 


Des rapports , des résumés tant et plus, au choix de chacun....


Données statistiques de la station
Quotidien Rapport Décembre 08, 2017 Unités:  Métrique    Anglais   les deux
« Précédent Jour
Suivant Jour »
Quotidien Hebdomadaire Mensuel Annuel Actuel
  Haut: Bas: Moyen:
Température: 6.3 °C 0.2 °C 2.8 °C
Pt de rosée: 4.0 °C -2.0 °C 0.8 °C
Humidité: 98 % 64 % 85 %
Vitesse du vent: 21.6 km/h 0.0 km/h 7.7 km/h
Rafales: 31.7 km/h - -
Vent:- - West
Pression: 1015.1 hPa 1010.0 hPa -
Précipitation: 0.3 mm    
Historical Graphs
 
 
Données statistiques pour Décembre 08, 2017
Heure Température Point de rosée Pression Vent Vitesse du vent Refales Humidité Pluie (taux horaire)
00:07 4.3 °C 4.0 °C 1011.1 hPa WSW 5.8 km/h 9.7 km/h 98 % 0.0 mm
00:23 4.1 °C 4.0 °C 1011.1 hPa WSW 5.8 km/h 5.8 km/h 98 % 0.0 mm
00:33 3.9 °C 4.0 °C 1011.1 hPa WSW 5.8 km/h 5.8 km/h 98 % 0.0 mm
00:38 3.7 °C 4.0 °C 1011.1 hPa WSW 5.8 km/h 5.8 km/h 98 % 0.0 mm
00:43 3.6 °C 4.0 °C 1011.1 hPa WSW 5.8 km/h 5.8 km/h 98 % 0.0 mm
00:48 3.6 °C 4.0 °C 1011.1 hPa WSW 5.8 km/h 5.8 km/h 98 % 0.0 mm
00:53 3.5 °C 4.0 °C 1011.1 hPa WSW 5.8 km/h 5.8 km/h 98 % 0.0 mm
00:58 3.5 °C 4.0 °C 1011.1 hPa WSW 5.8 km/h 5.8 km/h 98 % 0.0 mm
01:02 3.6 °C 4.0 °C 1011.1 hPa WSW 5.8 km/h 5.8 km/h 98 % 0.0 mm
01:07 3.6 °C 4.0 °C 1011.1 hPa WSW 5.8 km/h 5.8 km/h 98 % 0.0 mm
01:17 3.6 °C 4.0 °C 1010.0 hPa WSW 5.8 km/h 5.8 km/h 98 % 0.0 mm
01:22 3.6 °C 4.0 °C 1010.0 hPa WSW 5.8 km/h 5.8 km/h 98 % 0.0 mm
01:27 3.5 °C 4.0 °C 1011.1 hPa WSW 5.8 km/h 5.8 km/h 98 % 0.0 mm
01:32 3.4 °C 3.0 °C 1011.1 hPa WSW 5.8 km/h 5.8 km/h 98 % 0.0 mm
01:38 3.4 °C 3.0 °C 1011.1 hPa WSW 5.8 km/h 5.8 km/h 98 % 0.0 mm
01:43 3.4 °C 3.0 °C 1011.1 hPa WSW 5.8 km/h 5.8 km/h 98 % 0.0 mm
01:48 3.3 °C 3.0 °C 1011.1 hPa WSW 5.8 km/h 5.8 km/h 98 % 0.0 mm
02:03 3.0 °C 3.0 °C 1011.1 hPa WSW 5.8 km/h 5.8 km/h 98 % 0.0 mm
02:13 2.8 °C 3.0 °C 1011.1 hPa WSW 5.8 km/h 5.8 km/h 98 % 0.0 mm
02:18 2.8 °C 3.0 °C 1011.1 hPa WSW 5.8 km/h 5.8 km/h 98 % 0.0 mm
02:23 2.7 °C 3.0 °C 1011.1 hPa WSW 5.8 km/h 5.8 km/h 98 % 0.0 mm
02:33 2.5 °C 3.0 °C 1011.1 hPa WSW 5.8 km/h 5.8 km/h 98 % 0.0 mm
02:38 2.5 °C 3.0 °C 1011.1 hPa WSW 5.8 km/h 5.8 km/h 98 % 0.0 mm
02:43 2.4 °C 3.0 °C 1010.0 hPa WSW 5.8 km/h 5.8 km/h 98 % 0.0 mm
02:48 2.4 °C 3.0 °C 1010.0 hPa WSW 5.8 km/h 5.8 km/h 98 % 0.0 mm
02:53 2.4 °C 3.0 °C 1010.0 hPa WSW 5.8 km/h 5.8 km/h 98 % 0.0 mm
03:04 2.3 °C 3.0 °C 1010.0 hPa Calm     98 % 0.0 mm
03:09 2.3 °C 3.0 °C 1010.0 hPa Calm     98 % 0.0 mm
03:14 2.3 °C 3.0 °C 1011.1 hPa Calm     98 % 0.0 mm
03:24 2.3 °C 3.0 °C 1011.1 hPa Calm     98 % 0.0 mm
03:29 2.2 °C 2.0 °C 1011.1 hPa Calm     98 % 0.0 mm
03:34 2.1 °C 2.0 °C 1011.1 hPa Calm     98 % 0.0 mm
03:39 2.0 °C 2.0 °C 1011.1 hPa Calm     98 % 0.0 mm
03:49 1.8 °C 2.0 °C 1011.1 hPa Calm     98 % 0.0 mm
03:54 1.7 °C 2.0 °C 1011.1 hPa Calm     98 % 0.0 mm
03:59 1.6 °C 2.0 °C 1011.1 hPa Calm     98 % 0.0 mm
04:16 1.3 °C 1.0 °C 1011.1 hPa Calm     98 % 0.0 mm
04:21 1.4 °C 1.0 °C 1011.1 hPa Calm     98 % 0.0 mm
04:26 1.5 °C 2.0 °C 1011.1 hPa Calm     98 % 0.0 mm
04:28 1.5 °C 2.0 °C 1011.1 hPa Calm     98 % 0.0 mm
04:33 1.6 °C 2.0 °C 1011.1 hPa Calm     98 % 0.0 mm
04:38 1.7 °C 2.0 °C 1011.1 hPa Calm     98 % 0.0 mm
04:43 1.7 °C 2.0 °C 1011.1 hPa Calm     98 % 0.0 mm
04:48 1.8 °C 2.0 °C 1011.1 hPa Calm     98 % 0.0 mm
04:58 1.7 °C 2.0 °C 1011.1 hPa Calm     98 % 0.0 mm
05:03 1.6 °C 2.0 °C 1011.1 hPa Calm     98 % 0.0 mm
05:09 1.5 °C 2.0 °C 1011.1 hPa Calm     98 % 0.3 mm
05:14 1.4 °C 1.0 °C 1010.0 hPa Calm     98 % 0.3 mm
05:19 1.3 °C 1.0 °C 1010.0 hPa Calm     98 % 0.3 mm
05:29 1.3 °C 1.0 °C 1010.0 hPa Calm     98 % 0.3 mm
05:44 1.1 °C 1.0 °C 1010.0 hPa Calm     98 % 0.3 mm
05:49 1.1 °C 1.0 °C 1010.0 hPa Calm     98 % 0.3 mm
06:04 0.8 °C 1.0 °C 1010.0 hPa Calm     98 % 0.0 mm
06:14 0.6 °C 1.0 °C 1010.0 hPa Calm     98 % 0.0 mm
06:29 0.8 °C 1.0 °C 1010.0 hPa Calm     98 % 0.0 mm
06:34 0.7 °C 1.0 °C 1010.0 hPa Calm     98 % 0.0 mm
06:39 0.8 °C 1.0 °C 1010.0 hPa Calm     98 % 0.0 mm
06:45 0.7 °C 1.0 °C 1010.0 hPa Calm   4.7 km/h 98 % 0.0 mm
06:50 0.7 °C 1.0 °C 1010.0 hPa Calm   4.7 km/h 98 % 0.0 mm
06:55 0.7 °C 1.0 °C 1010.0 hPa Calm   5.0 km/h 98 % 0.0 mm
07:00 0.7 °C 1.0 °C 1010.0 hPa West 6.9 km/h 6.9 km/h 98 % 0.0 mm
07:10 0.7 °C 1.0 °C 1010.0 hPa WSW 7.9 km/h 8.7 km/h 98 % 0.0 mm
07:20 0.9 °C 1.0 °C 1010.0 hPa West 6.4 km/h 9.7 km/h 98 % 0.0 mm
07:25 0.9 °C 1.0 °C 1010.0 hPa West 6.4 km/h 9.7 km/h 98 % 0.0 mm
07:30 1.0 °C 1.0 °C 1010.0 hPa West 6.9 km/h 7.2 km/h 98 % 0.0 mm
07:45 0.9 °C 1.0 °C 1010.0 hPa WSW 9.3 km/h 10.8 km/h 98 % 0.0 mm
07:55 1.0 °C 1.0 °C 1010.0 hPa West 9.7 km/h 11.9 km/h 98 % 0.0 mm
08:00 1.0 °C 1.0 °C 1010.0 hPa WSW 10.5 km/h 11.9 km/h 98 % 0.0 mm
08:05 1.1 °C 1.0 °C 1010.0 hPa West 7.9 km/h 12.6 km/h 98 % 0.0 mm
08:10 1.1 °C 1.0 °C 1011.1 hPa West 6.9 km/h 12.6 km/h 98 % 0.0 mm
08:15 1.2 °C 1.0 °C 1011.1 hPa WSW 10.5 km/h 12.6 km/h 98 % 0.0 mm
08:21 1.2 °C 1.0 °C 1011.1 hPa West 9.7 km/h 12.6 km/h 98 % 0.0 mm
08:26 1.3 °C 1.0 °C 1011.1 hPa WSW 10.8 km/h 11.9 km/h 98 % 0.0 mm
08:36 1.5 °C 2.0 °C 1011.1 hPa WSW 9.3 km/h 14.0 km/h 98 % 0.0 mm
08:41 1.6 °C 2.0 °C 1011.1 hPa West 8.7 km/h 15.1 km/h 98 % 0.0 mm
08:46 1.7 °C 2.0 °C 1011.1 hPa WSW 9.7 km/h 15.1 km/h 98 % 0.0 mm
08:51 1.8 °C 2.0 °C 1011.1 hPa West 10.1 km/h 15.4 km/h 98 % 0.0 mm
09:01 2.0 °C 2.0 °C 1011.1 hPa WSW 14.8 km/h 16.9 km/h 96 % 0.0 mm
09:11 2.4 °C 2.0 °C 1011.1 hPa West 10.5 km/h 17.2 km/h 95 % 0.0 mm
09:16 2.5 °C 2.0 °C 1011.1 hPa West 14.0 km/h 22.7 km/h 95 % 0.0 mm
09:21 2.6 °C 2.0 °C 1011.1 hPa WSW 12.6 km/h 22.7 km/h 94 % 0.0 mm
09:26 2.8 °C 2.0 °C 1011.1 hPa West 10.5 km/h 20.6 km/h 93 % 0.0 mm
09:31 2.8 °C 2.0 °C 1011.1 hPa West 12.6 km/h 20.6 km/h 92 % 0.0 mm
09:41 3.0 °C 2.0 °C 1011.1 hPa West 12.6 km/h 18.3 km/h 90 % 0.0 mm
09:46 3.1 °C 2.0 °C 1011.1 hPa WNW 12.6 km/h 21.9 km/h 89 % 0.0 mm
09:56 3.3 °C 2.0 °C 1010.0 hPa West 12.6 km/h 20.9 km/h 89 % 0.0 mm
10:01 3.3 °C 2.0 °C 1010.0 hPa WSW 9.3 km/h 20.1 km/h 88 % 0.0 mm
10:06 3.4 °C 2.0 °C 1010.0 hPa WSW 14.0 km/h 20.1 km/h 88 % 0.0 mm
10:17 3.6 °C 2.0 °C 1011.1 hPa WSW 6.1 km/h 19.1 km/h 88 % 0.0 mm
10:22 3.7 °C 2.0 °C 1011.1 hPa West 9.3 km/h 19.1 km/h 87 % 0.0 mm
10:27 3.8 °C 2.0 °C 1011.1 hPa West 9.3 km/h 15.1 km/h 88 % 0.0 mm
10:32 4.0 °C 2.0 °C 1011.1 hPa WSW 8.7 km/h 11.9 km/h 87 % 0.0 mm
10:37 4.1 °C 2.0 °C 1011.1 hPa WNW 9.3 km/h 13.0 km/h 87 % 0.0 mm
10:42 4.3 °C 3.0 °C 1012.1 hPa SSW 7.9 km/h 13.7 km/h 87 % 0.0 mm
10:47 4.5 °C 3.0 °C 1012.1 hPa North 12.6 km/h 13.7 km/h 86 % 0.0 mm
10:57 5.0 °C 3.0 °C 1012.1 hPa WNW 17.7 km/h 19.5 km/h 84 % 0.0 mm
11:02 5.3 °C 3.0 °C 1012.1 hPa SW 21.6 km/h 21.6 km/h 82 % 0.0 mm
11:07 5.3 °C 3.0 °C 1012.1 hPa West 17.2 km/h 23.3 km/h 82 % 0.0 mm
11:17 5.8 °C 3.0 °C 1012.1 hPa WNW 21.2 km/h 21.2 km/h 78 % 0.0 mm
11:22 5.7 °C 2.0 °C 1012.1 hPa NNW 13.0 km/h 21.2 km/h 77 % 0.0 mm
11:32 5.8 °C 3.0 °C 1012.1 hPa NW 9.0 km/h 20.1 km/h 77 % 0.0 mm
11:37 5.9 °C 2.0 °C 1012.1 hPa NW 11.9 km/h 16.6 km/h 76 % 0.0 mm
11:42 5.7 °C 2.0 °C 1013.1 hPa West 8.7 km/h 17.7 km/h 76 % 0.0 mm
11:47 5.3 °C 2.0 °C 1013.1 hPa WSW 4.7 km/h 17.7 km/h 75 % 0.0 mm
12:07 5.3 °C 2.0 °C 1012.1 hPa West 9.0 km/h 17.7 km/h 77 % 0.0 mm
12:11 5.5 °C 2.0 °C 1012.1 hPa West 17.7 km/h 17.7 km/h 78 % 0.0 mm
12:21 5.5 °C 2.0 °C 1012.1 hPa WNW 13.7 km/h 17.7 km/h 77 % 0.0 mm
12:26 5.5 °C 2.0 °C 1013.1 hPa NNW 6.4 km/h 21.2 km/h 77 % 0.0 mm
12:31 5.6 °C 2.0 °C 1013.1 hPa WNW 10.1 km/h 21.2 km/h 77 % 0.0 mm
12:34 5.8 °C 2.0 °C 1013.1 hPa SW 14.0 km/h 21.2 km/h 76 % 0.0 mm
12:44 6.2 °C 3.0 °C 1013.1 hPa WSW 9.0 km/h 27.0 km/h 76 % 0.0 mm
12:54 6.3 °C 2.0 °C 1013.1 hPa WNW 13.0 km/h 21.2 km/h 74 % 0.0 mm
12:59 6.2 °C 2.0 °C 1013.1 hPa WNW 14.0 km/h 20.9 km/h 73 % 0.0 mm
13:04 6.1 °C 1.0 °C 1013.1 hPa West 21.2 km/h 21.9 km/h 69 % 0.0 mm
13:09 5.8 °C 1.0 °C 1013.1 hPa WNW 13.0 km/h 24.8 km/h 70 % 0.0 mm
13:14 5.6 °C 1.0 °C 1013.1 hPa South 14.0 km/h 24.8 km/h 70 % 0.0 mm
13:19 5.5 °C 1.0 °C 1013.1 hPa NW 10.5 km/h 31.7 km/h 69 % 0.0 mm
13:24 5.6 °C 1.0 °C 1013.1 hPa West 17.7 km/h 31.7 km/h 70 % 0.0 mm
13:29 5.5 °C 1.0 °C 1013.1 hPa West 15.8 km/h 26.7 km/h 69 % 0.0 mm
13:34 5.6 °C 1.0 °C 1013.1 hPa West 7.9 km/h 26.7 km/h 69 % 0.0 mm
13:39 5.6 °C 1.0 °C 1013.1 hPa NNW 3.2 km/h 19.8 km/h 70 % 0.0 mm
13:44 5.4 °C 0.0 °C 1013.1 hPa NW 5.8 km/h 16.6 km/h 69 % 0.0 mm
13:54 5.8 °C 1.0 °C 1013.1 hPa West 12.6 km/h 16.3 km/h 68 % 0.0 mm
14:00 5.8 °C 1.0 °C 1013.1 hPa West 10.5 km/h 28.0 km/h 68 % 0.0 mm
14:05 5.7 °C 0.0 °C 1013.1 hPa WNW 16.6 km/h 28.0 km/h 67 % 0.0 mm
14:10 5.5 °C 1.0 °C 1013.1 hPa West 12.2 km/h 20.6 km/h 68 % 0.0 mm
14:15 5.3 °C 0.0 °C 1013.1 hPa WNW 19.1 km/h 23.8 km/h 68 % 0.0 mm
14:25 5.2 °C 0.0 °C 1013.1 hPa WSW 9.3 km/h 25.6 km/h 67 % 0.0 mm
14:30 5.1 °C -1.0 °C 1012.1 hPa WSW 17.7 km/h 24.5 km/h 65 % 0.0 mm
14:35 5.0 °C -1.0 °C 1012.1 hPa NW 9.3 km/h 24.5 km/h 66 % 0.0 mm
14:40 4.9 °C -1.0 °C 1013.1 hPa NW 16.6 km/h 20.1 km/h 67 % 0.0 mm
14:45 4.8 °C -1.0 °C 1013.1 hPa WNW 14.0 km/h 17.2 km/h 68 % 0.0 mm
14:50 4.7 °C -1.0 °C 1013.1 hPa West 10.1 km/h 16.9 km/h 69 % 0.0 mm
15:00 5.0 °C 0.0 °C 1012.1 hPa WNW 14.0 km/h 16.9 km/h 69 % 0.0 mm
15:06 5.0 °C 0.0 °C 1012.1 hPa WNW 15.8 km/h 18.0 km/h 69 % 0.0 mm
15:11 4.7 °C -1.0 °C 1013.1 hPa West 8.7 km/h 18.0 km/h 68 % 0.0 mm
15:16 4.7 °C -1.0 °C 1013.1 hPa WNW 9.3 km/h 17.7 km/h 68 % 0.0 mm
15:21 4.9 °C 0.0 °C 1013.1 hPa West 9.3 km/h 17.2 km/h 68 % 0.0 mm
15:26 4.8 °C -1.0 °C 1013.1 hPa WNW 7.9 km/h 15.4 km/h 69 % 0.0 mm
15:31 4.8 °C -1.0 °C 1013.1 hPa West 16.3 km/h 16.3 km/h 69 % 0.0 mm
15:36 5.0 °C 0.0 °C 1013.1 hPa WNW 6.1 km/h 17.2 km/h 68 % 0.0 mm
15:41 5.1 °C 0.0 °C 1013.1 hPa West 9.3 km/h 17.2 km/h 68 % 0.0 mm
15:51 4.9 °C -1.0 °C 1013.1 hPa NW 13.0 km/h 25.9 km/h 64 % 0.0 mm
16:16 4.1 °C -1.0 °C 1013.1 hPa West 7.9 km/h 14.0 km/h 68 % 0.0 mm
16:21 4.0 °C -1.0 °C 1013.1 hPa West 7.6 km/h 14.0 km/h 69 % 0.0 mm
16:26 3.8 °C -1.0 °C 1013.1 hPa WNW 11.9 km/h 14.0 km/h 71 % 0.0 mm
16:31 3.6 °C -1.0 °C 1013.1 hPa WNW 7.9 km/h 14.8 km/h 71 % 0.0 mm
16:41 3.3 °C -1.0 °C 1013.1 hPa West 8.7 km/h 13.0 km/h 73 % 0.0 mm
16:46 3.1 °C -1.0 °C 1013.1 hPa West 4.3 km/h 13.0 km/h 73 % 0.0 mm
17:02 3.1 °C -1.0 °C 1014.1 hPa WSW 11.6 km/h 16.3 km/h 74 % 0.0 mm
17:07 3.2 °C -1.0 °C 1014.1 hPa WSW 10.1 km/h 16.6 km/h 73 % 0.0 mm
17:12 3.2 °C -1.0 °C 1014.1 hPa West 10.1 km/h 16.6 km/h 73 % 0.0 mm
17:17 3.0 °C -1.0 °C 1014.1 hPa WSW 6.1 km/h 13.0 km/h 72 % 0.0 mm
17:22 2.9 °C -1.0 °C 1014.1 hPa West 7.9 km/h 11.6 km/h 73 % 0.0 mm
17:27 2.7 °C -1.0 °C 1014.1 hPa WNW 3.2 km/h 11.6 km/h 73 % 0.0 mm
17:32 2.6 °C -1.0 °C 1014.1 hPa West 1.8 km/h 11.6 km/h 73 % 0.0 mm
17:37 2.5 °C -1.0 °C 1014.1 hPa WSW 6.4 km/h 12.6 km/h 73 % 0.0 mm
17:42 2.4 °C -1.0 °C 1014.1 hPa WNW 9.3 km/h 12.6 km/h 74 % 0.0 mm
17:47 2.2 °C -2.0 °C 1014.1 hPa West 11.6 km/h 16.9 km/h 74 % 0.0 mm
17:52 2.1 °C -1.0 °C 1014.1 hPa WSW 15.8 km/h 16.9 km/h 75 % 0.0 mm
17:57 2.0 °C -1.0 °C 1014.1 hPa WSW 4.3 km/h 15.8 km/h 75 % 0.0 mm
18:12 1.9 °C -2.0 °C 1014.1 hPa West 2.6 km/h 13.0 km/h 76 % 0.0 mm
18:17 1.8 °C -2.0 °C 1014.1 hPa WSW 12.6 km/h 12.6 km/h 77 % 0.0 mm
18:22 1.7 °C -2.0 °C 1014.1 hPa West 9.3 km/h 12.6 km/h 77 % 0.0 mm
18:27 1.6 °C -2.0 °C 1014.1 hPa West 9.0 km/h 12.2 km/h 77 % 0.0 mm
18:32 1.4 °C -2.0 °C 1014.1 hPa WSW 5.8 km/h 9.3 km/h 77 % 0.0 mm
18:37 1.2 °C -2.0 °C 1014.1 hPa West 5.8 km/h 8.7 km/h 77 % 0.0 mm
18:47 1.0 °C -2.0 °C 1014.1 hPa WNW 5.5 km/h 9.0 km/h 78 % 0.0 mm
18:52 1.0 °C -2.0 °C 1014.1 hPa West 5.5 km/h 9.3 km/h 79 % 0.0 mm
18:57 1.0 °C -2.0 °C 1015.1 hPa West 4.3 km/h 11.6 km/h 79 % 0.0 mm
19:02 1.0 °C -2.0 °C 1015.1 hPa WSW 6.4 km/h 11.6 km/h 80 % 0.0 mm
19:12 1.1 °C -2.0 °C 1015.1 hPa West 10.1 km/h 12.6 km/h 81 % 0.0 mm
19:33 1.2 °C -1.0 °C 1015.1 hPa West 11.6 km/h 12.2 km/h 81 % 0.0 mm
19:43 1.3 °C -1.0 °C 1015.1 hPa West 7.9 km/h 17.2 km/h 81 % 0.0 mm
19:53 1.2 °C -1.0 °C 1015.1 hPa WSW 1.8 km/h 12.2 km/h 81 % 0.0 mm
19:58 1.2 °C -1.0 °C 1015.1 hPa WSW 7.9 km/h 13.7 km/h 81 % 0.0 mm
20:08 1.1 °C -2.0 °C 1015.1 hPa NW 10.1 km/h 12.6 km/h 81 % 0.0 mm
20:13 1.1 °C -2.0 °C 1015.1 hPa WSW 5.8 km/h 12.6 km/h 81 % 0.0 mm
20:28 1.4 °C -1.0 °C 1015.1 hPa NNW 9.0 km/h 13.0 km/h 83 % 0.0 mm
20:33 1.6 °C -1.0 °C 1015.1 hPa NNW 6.1 km/h 16.9 km/h 82 % 0.0 mm
20:38 1.8 °C -1.0 °C 1015.1 hPa NNW 11.6 km/h 16.9 km/h 82 % 0.0 mm
20:43 1.8 °C -1.0 °C 1015.1 hPa WNW 6.4 km/h 20.6 km/h 81 % 0.0 mm
20:48 1.9 °C -1.0 °C 1015.1 hPa West 10.5 km/h 20.6 km/h 81 % 0.0 mm
20:53 1.9 °C -1.0 °C 1015.1 hPa WNW 9.0 km/h 16.6 km/h 81 % 0.0 mm
20:58 1.8 °C -1.0 °C 1015.1 hPa WSW 6.9 km/h 17.2 km/h 80 % 0.0 mm
21:05 1.7 °C -1.0 °C 1015.1 hPa West 4.3 km/h 15.1 km/h 80 % 0.0 mm
21:10 1.6 °C -1.0 °C 1015.1 hPa WNW 4.7 km/h 16.3 km/h 80 % 0.0 mm
21:15 1.6 °C -1.0 °C 1014.1 hPa West 6.1 km/h 16.3 km/h 81 % 0.0 mm
21:25 1.5 °C -1.0 °C 1014.1 hPa West 5.5 km/h 13.7 km/h 81 % 0.0 mm
21:40 1.2 °C -1.0 °C 1015.1 hPa West 10.5 km/h 12.2 km/h 81 % 0.0 mm
21:45 1.1 °C -2.0 °C 1015.1 hPa West 5.5 km/h 12.2 km/h 81 % 0.0 mm
21:50 1.0 °C -1.0 °C 1015.1 hPa West 6.1 km/h 14.0 km/h 82 % 0.0 mm
22:06 0.9 °C -1.0 °C 1015.1 hPa West 11.6 km/h 12.6 km/h 83 % 0.0 mm
22:16 0.9 °C -1.0 °C 1015.1 hPa WSW 1.4 km/h 13.7 km/h 85 % 0.0 mm
22:21 0.9 °C -1.0 °C 1015.1 hPa WNW 10.5 km/h 13.7 km/h 85 % 0.0 mm
22:31 1.0 °C -1.0 °C 1015.1 hPa West 9.0 km/h 14.0 km/h 84 % 0.0 mm
22:41 0.9 °C -1.0 °C 1015.1 hPa WNW 5.5 km/h 14.8 km/h 85 % 0.0 mm
22:46 0.9 °C -1.0 °C 1015.1 hPa WSW 12.6 km/h 14.0 km/h 85 % 0.0 mm
22:51 0.9 °C -1.0 °C 1015.1 hPa West 6.4 km/h 12.6 km/h 85 % 0.0 mm
22:56 0.8 °C -1.0 °C 1015.1 hPa West 11.6 km/h 14.8 km/h 85 % 0.0 mm
23:11 0.6 °C -1.0 °C 1015.1 hPa West 9.0 km/h 13.7 km/h 84 % 0.0 mm
23:16 0.5 °C -1.0 °C 1015.1 hPa WSW 5.8 km/h 11.9 km/h 85 % 0.0 mm
23:21 0.4 °C -1.0 °C 1015.1 hPa West 8.7 km/h 11.9 km/h 85 % 0.0 mm
23:26 0.4 °C -1.0 °C 1015.1 hPa West 10.1 km/h 10.5 km/h 85 % 0.0 mm
23:31 0.4 °C -1.0 °C 1015.1 hPa West 6.9 km/h 12.2 km/h 85 % 0.0 mm
23:41 0.4 °C -1.0 °C 1015.1 hPa West 7.9 km/h 14.0 km/h 87 % 0.0 mm
23:46 0.4 °C -1.0 °C 1015.1 hPa West 9.0 km/h 14.0 km/h 87 % 0.0 mm
23:56 0.2 °C -1.0 °C 1015.1 hPa West 6.4 km/h 11.6 km/h 87 % 0.0 mm
Le Gheer Warneton
Courtoisie de Weather Underground - 1.75 mb

Mise a jour : 16-12-17 15:52:10
Généré par Cumulus 1.9.4 (1099)